Regional Weather Roundup
Issued by NWS Sioux Falls, SD

Home | Current Version | Previous Version | Graphics & Text | Print | Product List | Glossary On
Versions: 1 2 3 4 5 6 7 8 9 10 11 12 13 14 15 16 17 18 19 20 21 22 23 24 25 26 27 28 29 30 31 32 33 34 35 36 37 38 39 40 41 42 43 44 45 46 47 48 49 50
649
ASUS43 KFSD 242102
RWRFSD

WEATHER ROUNDUP FOR SE SOUTH DAKOTA/SW MINNESOTA/NW IOWA
NATIONAL WEATHER SERVICE SIOUX FALLS SD
300 PM CST SAT FEB 24 2018

NOTE: "FAIR" INDICATES FEW OR NO CLOUDS BELOW 12,000 FEET WITH NO
SIGNIFICANT WEATHER AND OR OBSTRUCTIONS TO VISIBILITY.


SDZ038>040-050-052>070-242200-
SOUTHEAST SOUTH DAKOTA

CITY           SKY/WX    TMP DP  RH WIND       PRES   REMARKS
BROOKINGS      LGT SNOW  21  16  81 SE15      29.66F WCI   8
CHAMBERLAIN    MOSUNNY   19  14  80 CALM      29.68F
HURON          CLOUDY    19  16  88 NW6       29.70F WCI  11
MADISON        FLURRIES  19  19 100 S10       29.66F WCI   8
MITCHELL       CLOUDY    18  14  84 NW7       29.71F WCI   9
SIOUX FALLS    LGT SNOW  21  17  84 SE12      29.68F FOG     WCI   9
WINNER         CLOUDY    25  16  68 N5        29.65F WCI  19
YANKTON        CLOUDY    24  19  81 SE9       29.70F WCI  14
$$

MNZ071-072-080-081-089-090-097-098-242200-
SOUTHWEST MINNESOTA

CITY           SKY/WX    TMP DP  RH WIND       PRES   REMARKS
FAIRMONT       SNOW      20  18  92 N12       29.70F VSB 1/2 WCI   8
JACKSON        SNOW      18  16  93 NE6       29.70F VSB 1/2 WCI   9
LUVERNE        SNOW      21  19  93 SE7       29.68F VSB 1/2 WCI  13
MARSHALL       LGT SNOW  19  15  84 SE3       29.72F VSB 3/4
MONTEVIDEO     SNOW      21  19  93 SE16      29.71F VSB 1/2 WCI   7
PIPESTONE      SNOW      18  16  93 SE7       29.66F VSB 1/2 WCI   8
REDWOOD FALLS  SNOW      20  19  96 E15G23    29.72F VSB 1/4 WCI   6
TRACY          LGT SNOW  16  15  95 SE6       29.71F VSB 1   WCI   7
WORTHINGTON    LGT SNOW  18  15  88 E8        29.68F FOG     WCI   8
$$

IAZ001>003-012>014-020>022-031-032-NEZ013-014-SDZ071-242200-
NORTHWEST IOWA

CITY           SKY/WX    TMP DP  RH WIND       PRES   REMARKS
CHEROKEE       LGT SNOW  25  24  95 CALM      29.69F
DENISON        LGT SNOW  28  28 100 NW5       29.71F VSB 3/4 WCI  23
ESTHERVILLE    SNOW      19  16  88 N8        29.70F VSB 1/2 WCI   9
LE MARS        PTSUNNY   23  21  93 S5        29.71F FOG     WCI  17
ORANGE CITY    LGT SNOW  23  23 100 S3        29.69F
SHELDON        LGT SNOW  21  21 100 SE7       29.67F VSB 1   WCI  13
SIOUX CITY     CLOUDY    24  20  84 CALM      29.72F
SPENCER        LGT SNOW  24  19  81 E8        29.70F VSB 1   WCI  15
STORM LAKE     CLOUDY    25  25 100 NE3       29.68F FOG
$$

ABBREVIATIONS USED IN REMARKS
   TC - TEMPERATURE IN CELSIUS
  WCI - WIND CHILL INDEX
   HX - HEAT INDEX
  VSB - VISIBILITY





USA.gov is the U.S. government's official web portal to all federal, state and local government web resources and services.